Home   Weather   Gothenburg   Past weeks

Flag for Sweden Past Weather in Gothenburg, Sweden — Yesterday and Last 2 Weeks

Now
36 °F

Clear.


Feels Like: 30 °F
Forecast: 40 / 45 °F
Wind: 7 mph from Southwest

Location: Gothenburg / Landvetter

Current Time: Apr 23, 2017 at 11:47:10 pm

Latest Report: Apr 23, 2017 at 11:20 pm


Visibility: 10 mi

Pressure: 29.86 "Hg

Humidity: 87%

Dew Point: 32 °F

Location of GothenburgLocation

Past Weather in Gothenburg — Graph

°F

Gothenburg Temperature Yesterday

Maximum temperature yesterday: 52 °F (at 2:50 pm)
Minimum temperature yesterday: 36 °F (at 4:20 am)
Average temperature yesterday: 42 °F

High & Low Weather Summary for the Past Weeks

 TemperatureHumidityPressure
High52 °F (Apr 22, 2:50 pm)100% (Apr 10, 9:50 am)30.57 "Hg (Apr 10, 9:50 am)
Low25 °F (Apr 15, 12:50 am)24% (Apr 22, 2:50 pm)29.42 "Hg (Apr 12, 6:20 pm)
Average39 °F72%29.90 "Hg
* Reported Apr 8 10:20 pm — Apr 23 10:50 pm, Gothenburg, Weather by CustomWeather, © 2017

Note: Actual official high and low records may vary slightly from our data, if they occured in-between our weather recording intervals... More about our weather records

Advertising

Gothenburg Weather History for the Previous 24 Hours

Scroll right to see more
 ConditionsComfort  
Time TempWeatherWind HumidityBarometerVisibility
10:50 pm
Sun, Apr 23
34 °FClear.7 mph87%29.86 "Hg10 mi
10:20 pm36 °FClear.7 mph81%29.86 "Hg10 mi
9:50 pm36 °FClear.6 mph75%29.86 "Hg10 mi
9:20 pm37 °FClear.6 mph60%29.86 "Hg10 mi
8:50 pm39 °FClear.6 mph48%29.86 "Hg10 mi
8:20 pm41 °FSunny.7 mph42%29.86 "Hg10 mi
7:50 pm41 °FPassing clouds.9 mph45%29.86 "HgN/A
7:20 pm43 °FSunny.13 mph42%29.86 "Hg10 mi
6:50 pm43 °FSunny.14 mph42%29.86 "Hg10 mi
6:20 pm43 °FSunny.14 mph39%29.86 "Hg10 mi
5:50 pm45 °FPassing clouds.14 mph37%29.86 "HgN/A
5:20 pm45 °FSunny.13 mph34%29.86 "Hg10 mi
4:50 pm45 °FPassing clouds.14 mph37%29.86 "HgN/A
4:20 pm45 °FSunny.17 mph37%29.86 "Hg10 mi
3:50 pm45 °FPassing clouds.16 mph37%29.86 "HgN/A
3:20 pm45 °FPassing clouds.16 mph37%29.86 "HgN/A
2:50 pm45 °FSunny.16 mph39%29.83 "Hg10 mi
2:20 pm45 °FSunny.15 mph42%29.83 "Hg10 mi
1:50 pm45 °FPassing clouds.15 mph39%29.83 "HgN/A
1:20 pm45 °FPassing clouds.16 mph39%29.83 "HgN/A
12:50 pm46 °FSunny.16 mph37%29.83 "Hg10 mi
12:20 pm46 °FSunny.14 mph43%29.83 "Hg10 mi
11:50 am46 °FPassing clouds.12 mph43%29.83 "HgN/A
11:20 am45 °FSunny.12 mph42%29.83 "Hg10 mi
10:50 am45 °FPassing clouds.10 mph42%29.83 "HgN/A
10:20 am43 °FPassing clouds.8 mph46%29.83 "HgN/A
9:50 am43 °FSunny.9 mph49%29.83 "Hg10 mi
9:20 am41 °FSunny.9 mph57%29.83 "Hg10 mi
8:50 am39 °FSunny.9 mph61%29.83 "Hg10 mi
8:20 am37 °FSunny.6 mph70%29.83 "Hg10 mi
7:50 am37 °FSunny.5 mph75%29.83 "Hg10 mi
7:20 am32 °FPassing clouds.3 mph80%29.83 "HgN/A
6:50 am30 °FSunny.5 mph86%29.83 "Hg10 mi
6:20 am32 °FSunny.6 mph80%29.83 "Hg10 mi
5:50 am32 °FSunny.6 mph80%29.83 "Hg10 mi
5:20 am34 °FClear.3 mph75%29.83 "Hg10 mi
4:50 am36 °FClear.6 mph70%29.83 "Hg10 mi
4:20 am30 °FClear.3 mph80%29.83 "Hg10 mi
3:50 am36 °FClear.2 mph70%29.83 "Hg10 mi
3:20 am36 °FClear.2 mph70%29.83 "Hg10 mi
2:50 am36 °FClear.3 mph70%29.83 "Hg10 mi
2:20 am36 °FClear.5 mph70%29.83 "Hg10 mi
1:50 am37 °FClear.3 mph70%29.83 "Hg10 mi
1:20 am34 °FClear.5 mph81%29.86 "Hg10 mi
12:50 am36 °FClear.5 mph75%29.83 "Hg10 mi
12:20 am37 °FClear.3 mph75%29.83 "Hg10 mi
11:50 pm
Sat, Apr 22
39 °FClear.5 mph65%29.83 "Hg10 mi
11:20 pm37 °FClear.3 mph70%29.83 "Hg10 mi
Weather by CustomWeather, © 2017

See weather overviewHow to use our weather pages